Location: Владивосток
(43.1151°N, 131.8856°E)
Time: 21:16:53
(UTC+10:00)

CZ-6A DEB - Visible Passes

Search period start: 06 October 2024 00:00
Search period end: 16 October 2024 00:00
Orbit: 727 x 824 km, 98.7° (Epoch: 05 October)

Date Brightness Start Highest point End Pass type
(mag) Time Alt. Az. Time Alt. Az. Time Alt. Az.
06 Oct ? 19:18:18 10° SSE 19:23:08 58° ENE 19:28:07 10° N visible
06 Oct ? 20:59:32 10° SW 21:02:44 17° W 21:05:58 10° NW visible
07 Oct ? 20:24:10 10° SSW 20:28:39 35° W 20:33:17 10° NNW visible
08 Oct ? 19:49:50 10° S 19:54:46 73° WSW 19:59:53 10° NNW visible
09 Oct ? 19:16:13 10° SSE 19:21:03 55° ENE 19:26:03 10° N visible
09 Oct ? 20:57:13 10° SW 21:00:36 18° W 21:04:02 10° NW visible
10 Oct ? 20:21:55 10° SSW 20:26:30 37° W 20:31:14 10° NNW visible
11 Oct ? 19:47:36 10° S 19:52:35 77° WSW 19:57:44 10° NNW visible
12 Oct ? 19:14:00 10° SE 19:18:50 52° ENE 19:23:50 10° N visible
12 Oct ? 20:54:47 10° SW 20:58:20 19° W 21:01:58 10° NW visible
13 Oct ? 20:19:33 10° SSW 20:24:13 39° W 20:29:02 10° NNW visible
14 Oct ? 19:45:15 10° SSE 19:50:17 82° WSW 19:55:29 10° NNW visible
15 Oct ? 19:11:39 10° SE 19:16:30 50° ENE 19:21:30 10° N visible
15 Oct ? 20:52:14 10° SW 20:55:57 21° W 20:59:47 10° NW visible
